Weather Roundup
Issued by NWS Springfield, MO

Home | Current Version | Previous Version | Text Only | Print | Product List | Glossary On
Versions: 1 2 3 4 5 6 7 8 9 10 11 12 13 14 15 16 17 18 19 20 21 22 23 24 25 26 27 28 29 30 31 32 33 34 35 36 37 38 39 40 41 42 43 44 45 46 47 48 49 50
000
NZUS99 KSGF 151707
HRRSGF

HOURLY WEATHER
NATIONAL WEATHER SERVICE SPRINGFIELD MO
1200 PM CDT MON SEP 15 2014

......SGF CWA......

CITY           SKY/WX    TMP DP  RH WIND       PRES   REMARKS
SPRINGFIELD    MOSUNNY   77  65  66 SW15      30.13F
JOPLIN         MOSUNNY   78  66  66 SW18G25   30.14S
WEST PLAINS    CLOUDY    69  62  78 SW8       30.17F
ROLLA          SUNNY     74  64  71 SW13      30.08F
OSAGE BEACH    PTSUNNY   79  64  61 W15G21    30.09F
BRANSON        CLOUDY    73  66  78 SW6       30.18S

......SURROUNDING SGF CWA......

CITY           SKY/WX    TMP DP  RH WIND       PRES   REMARKS
CHANUTE        MOSUNNY   81  66  60 W18G24    30.10S
PARSONS        SUNNY     81  67  62 SW13G21   30.12F
COFFEYVILLE    SUNNY     81  67  62 SW14      30.11F
EMPORIA        CLOUDY    76  64  66 W9G18     30.10S
GROVE OK       PTSUNNY   77  68  73 SW14      30.16S
ROGERS AR      CLOUDY    71  65  81 SW7       30.19F
SILOAM SPRINGS CLOUDY    72  63  73 SW10      30.20S
HARRISON AR    CLOUDY    68  66  93 CALM      30.18R
NEAR YELLVILLE CLOUDY    70  61  73 SW3       30.16S

......KANSAS AND MISSOURI......

CITY           SKY/WX    TMP DP  RH WIND       PRES   REMARKS
KANSAS CTY INT CLOUDY    67  65  93 W10       30.10R FOG
DOWNTOWN KC    CLOUDY    71  65  81 W12       30.08R
COLUMBIA       CLOUDY    73  65  75 SW14      30.07F
SEDALIA        CLOUDY    75  65  70 W14G20    30.08R
ST JOSEPH      CLOUDY    66  63  90 N10       30.11R
ST LOUIS       PTSUNNY   74  61  63 SW15G22   30.06F
SPIRIT OF STL  PTSUNNY   72  62  71 SW8       30.05F
KIRKSVILLE     CLOUDY    61  59  93 W3        30.08S
WICHITA        PTSUNNY   84  62  47 W12G18    30.10S
TOPEKA         CLOUDY    71  65  81 NW10      30.11R
OLATHE         CLOUDY    70  65  84 NW7       30.09R

......TENNESSEE......

CITY           SKY/WX    TMP DP  RH WIND       PRES   REMARKS
MEMPHIS        PTSUNNY   81  60  48 VRB3      30.17F
NASHVILLE      CLOUDY    73  62  68 N3        30.18F

......ARKANSAS.......

CITY           SKY/WX    TMP DP  RH WIND       PRES   REMARKS
FAYETTEVILLE   CLOUDY    69  65  86 S8        30.19S
FT SMITH       CLOUDY    71  65  81 NE7       30.17S
LITTLE ROCK    CLOUDY    74  58  57 CALM      30.17F

......OKLAHOMA.......

CITY           SKY/WX    TMP DP  RH WIND       PRES   REMARKS
TULSA          PTSUNNY   75  66  73 S10       30.13S
PONCA CITY     PTSUNNY   83  64  52 W12G22    30.12S
MCALESTER      CLOUDY    76  67  73 VRB6      30.18S
OKLAHOMA CITY  PTSUNNY   77  66  68 S8        30.15F

......IOWA............

CITY           SKY/WX    TMP DP  RH WIND       PRES   REMARKS
DES MOINES     CLOUDY    58  49  72 N10G22    30.15R
QUAD CITIES    CLOUDY    59  54  83 E5        30.07F

......ILLINOIS........

CITY           SKY/WX    TMP DP  RH WIND       PRES   REMARKS
QUINCY         PTSUNNY   60  58  92 S7        30.05F
CHICAGO        CLOUDY    59  49  69 S3        30.12S



USA.gov is the U.S. government's official web portal to all federal, state and local government web resources and services.